Retour au catalogue

STARLINK-36770

ActifCommunicationsVLEO
NORAD 67870·PAYLOAD·🇺🇸 United States

Lancé Feb 20, 2026 depuis Vandenberg Space Force Base

Loading…

Prochains Passages (prochaines 24 heures)

TLE

FraisSource: CelesTrak SupGP

Époque: Sep 15, 2026, 03:26 UTC

1 67870C 26034W   26258.14354167  .00002112  00000+0  62420-4 0  2588
2 67870  53.1600  42.7519 0001202  88.6334 251.0053 15.34376301    10

Suivez STARLINK-36770 en temps réel avec AllMySat

Download on the App Store